カタログに戻る

PEGASUS DEB

運用中PO
NORAD 24340·DEBRIS·🇺🇸 United States

打ち上げ May 19, 1994 から Vandenberg Space Force Base

Loading…

次のパス (今後24時間)

TLE

最新Source: Space-Track

元期: Sep 14, 2026, 07:45 UTC

1 24340U 94029NR  26257.32322780  .00000539  00000-0  22496-3 0  9999
2 24340  81.5934 228.7059 0827051 266.3792  84.2493 13.16675251537266

AllMySatでPEGASUS DEBをリアルタイム追跡

Download on the App Store